GW2632 Weather Reports


Display with metric or nautical units.
time (UTC)temp
F
wind
direction
speed
MPH
gust
MPH
rain 1hr
in
rain 24hr
in
rain mn
in
humidity
%
barometer
mb
20260831192517 84 146 4.0 4.0 0.00 0.01 0.01 78 1017.0
20260831192013 84 160 1.0 5.0 0.00 0.01 0.01 79 1017.0
20260831191509 85 174 1.0 2.0 0.00 0.01 0.01 76 1016.8
20260831191004 84 120 2.0 5.0 0.02 0.01 0.01 75 1017.1
20260831190500 85 149 1.0 5.0 0.02 0.01 0.01 75 1017.0
20260831185958 85 144 2.0 4.0 0.00 0.00 0.00 73 1016.9
20260831185454 85 67 2.0 5.0 0.00 0.00 0.00 71 1017.2
20260831184954 85 123 4.0 7.0 0.00 0.00 0.00 70 1017.1
20260831184449 86 169 1.0 4.0 0.00 0.00 0.00 70 1017.2
20260831183944 86 163 2.0 5.0 0.00 0.00 0.00 69 1017.1
20260831183443 87 118 4.0 7.0 0.00 0.00 0.00 66 1017.3
20260831182943 87 149 5.0 9.0 0.00 0.00 0.00 67 1017.6
20260831182438 89 136 2.0 6.0 0.00 0.00 0.00 66 1017.3
20260831181933 89 192 3.0 6.0 0.00 0.00 0.00 68 1017.0
20260831181429 88 186 2.0 5.0 0.00 0.00 0.00 68 1016.9
20260831180924 88 111 7.0 11.0 0.00 0.00 0.00 66 1017.0
20260831180423 89 222 2.0 5.0 0.00 0.00 0.00 64 1017.1
20260831175923 88 138 1.0 6.0 0.00 0.00 0.00 65 1017.1
20260831175420 89 111 3.0 6.0 0.00 0.00 0.00 66 1017.3
20260831174915 89 166 3.0 7.0 0.00 0.00 0.00 64 1017.0
20260831174411 88 316 3.0 3.0 0.00 0.00 0.00 69 1017.1
20260831173910 88 66 3.0 7.0 0.00 0.00 0.00 68 1017.1
20260831173409 86 179 2.0 7.0 0.00 0.00 0.00 70 1017.5
20260831172905 85 12 3.0 5.0 0.00 0.00 0.00 68 1017.3
20260831172400 85 32 3.0 8.0 0.00 0.00 0.00 68 1017.3
20260831171900 86 136 0.0 6.0 0.00 0.00 0.00 65 1017.4
20260831171356 88 166 2.0 5.0 0.00 0.00 0.00 62 1017.7
20260831170853 92 69 4.0 7.0 0.00 0.00 0.00 57 1017.6
20260831170349 92 72 1.0 4.0 0.00 0.00 0.00 55 1017.5
20260831165845 91 64 0.0 5.0 0.00 0.00 0.00 58 1017.6
20260831165341 91 296 1.0 3.0 0.00 0.00 0.00 59 1017.9
20260831164837 91 49 0.0 2.0 0.00 0.00 0.00 59 1017.9
20260831164333 92 197 0.0 3.0 0.00 0.00 0.00 60 1017.6
20260831163828 93 292 2.0 3.0 0.00 0.00 0.00 58 1017.8
20260831163324 92 198 2.0 4.0 0.00 0.00 0.00 60 1018.0
20260831162822 91 51 2.0 2.0 0.00 0.00 0.00 59 1017.9
20260831162318 90 148 1.0 2.0 0.00 0.00 0.00 59 1017.9
20260831161816 91 264 2.0 3.0 0.00 0.00 0.00 60 1018.0
20260831161313 93 260 2.0 2.0 0.00 0.00 0.00 57 1018.2
20260831160814 91 245 2.0 2.0 0.00 0.00 0.00 56 1018.1
20260831160308 92 170 1.0 3.0 0.00 0.00 0.00 58 1018.2
20260831155808 93 224 0.0 3.0 0.00 0.00 0.00 60 1018.3
20260831155306 92 72 2.0 3.0 0.00 0.00 0.00 59 1018.5
20260831154759 91 54 2.0 4.0 0.00 0.00 0.00 58 1018.7
20260831154255 90 149 2.0 4.0 0.00 0.00 0.00 59 1018.3
20260831153754 91 163 2.0 8.0 0.00 0.00 0.00 59 1018.5
20260831153249 91 127 5.0 5.0 0.00 0.00 0.00 59 1018.6
20260831152745 90 237 2.0 3.0 0.00 0.00 0.00 62 1018.6
20260831152241 89 143 2.0 4.0 0.00 0.00 0.00 59 1018.7
20260831151736 89 197 3.0 4.0 0.00 0.00 0.00 63 1018.3
20260831151235 90 181 2.0 4.0 0.00 0.00 0.00 65 1018.4
20260831150730 89 129 3.0 3.0 0.00 0.00 0.00 63 1018.4
20260831150226 89 124 4.0 4.0 0.00 0.00 0.00 64 1018.3
20260831145724 90 300 2.0 3.0 0.00 0.00 0.00 65 1018.4
20260831145221 89 161 0.0 2.0 0.00 0.00 0.00 66 1018.3
20260831144716 87 204 0.0 2.0 0.00 0.00 0.00 69 1018.3
20260831144213 86 229 1.0 2.0 0.00 0.00 0.00 69 1018.2
20260831143712 87 197 1.0 2.0 0.00 0.00 0.00 69 1018.2
20260831143207 87 227 0.0 2.0 0.00 0.00 0.00 69 1018.4
20260831142703 86 157 3.0 3.0 0.00 0.00 0.00 70 1018.2
20260831142159 86 131 4.0 6.0 0.00 0.00 0.00 68 1017.8
20260831141657 87 325 2.0 2.0 0.00 0.00 0.00 67 1018.3
20260831141153 88 258 2.0 2.0 0.00 0.00 0.00 69 1018.2
20260831140652 86 224 1.0 2.0 0.00 0.00 0.00 70 1018.0
20260831140147 86 150 2.0 3.0 0.00 0.00 0.00 72 1018.1
20260831135645 86 229 2.0 3.0 0.00 0.00 0.00 70 1018.1
20260831135141 88 248 2.0 3.0 0.00 0.00 0.00 68 1018.0
20260831134637 87 139 2.0 3.0 0.00 0.00 0.00 68 1018.1
20260831134132 87 301 0.0 2.0 0.00 0.00 0.00 70 1018.1
20260831133631 87 250 0.0 2.0 0.00 0.00 0.00 73 1018.0
20260831133126 87 217 1.0 3.0 0.00 0.00 0.00 73 1017.9
20260831132622 86 211 3.0 3.0 0.00 0.00 0.00 75 1017.9
20260831132120 86 255 2.0 3.0 0.00 0.00 0.00 76 1017.9
20260831131616 86 162 2.0 3.0 0.00 0.00 0.00 78 1017.8
20260831131112 87 220 1.0 2.0 0.00 0.00 0.00 77 1017.9
20260831130607 86 323 0.0 2.0 0.00 0.00 0.00 78 1017.8
20260831125601 85 181 1.0 2.0 0.00 0.00 0.00 83 1017.8
20260831125056 84 282 0.0 2.0 0.00 0.00 0.00 85 1017.7
20260831124553 84 133 2.0 2.0 0.00 0.00 0.00 88 1018.0
20260831124048 84 169 2.0 2.0 0.00 0.00 0.00 89 1017.9
20260831123548 83 50 0.0 2.0 0.00 0.00 0.00 92 1017.7
20260831123043 81 125 0.0 0.0 0.00 0.00 0.00 97 1017.8
20260831122542 80 68 2.0 2.0 0.00 0.00 0.00 99 1017.7
20260831122038 79 106 0.0 0.0 0.00 0.00 0.00 99 1017.5
20260831121538 78 107 0.0 2.0 0.00 0.00 0.00 99 1017.5
20260831121035 78 350 0.0 1.0 0.00 0.00 0.00 99 1017.6
20260831120534 77 7 0.0 1.0 0.00 0.00 0.00 99 1017.4
20260831120030 77 307 0.0 1.0 0.00 0.00 0.00 99 1017.3
20260831115525 76 315 0.0 0.0 0.00 0.00 0.00 99 1017.3
20260831115021 76 315 0.0 0.0 0.00 0.00 0.00 99 1017.3
20260831114520 76 51 0.0 0.0 0.00 0.00 0.00 99 1017.1
20260831114015 76 40 0.0 0.0 0.00 0.00 0.00 99 1017.1
20260831113514 75 309 0.0 0.0 0.00 0.00 0.00 99 1017.2
20260831113010 75 308 0.0 0.0 0.00 0.00 0.00 99 1017.0
20260831112509 75 319 0.0 0.0 0.00 0.00 0.00 99 1017.1
20260831112004 75 17 0.0 0.0 0.00 0.00 0.00 99 1017.2
20260831111500 75 17 0.0 1.0 0.00 0.00 0.00 99 1016.9
20260831110955 75 269 0.0 1.0 0.00 0.00 0.00 99 1016.8
20260831110450 75 294 0.0 0.0 0.00 0.00 0.00 99 1016.8
20260831105949 75 311 0.0 0.0 0.00 0.00 0.00 98 1016.7
20260831105445 75 319 0.0 0.0 0.00 0.00 0.00 98 1016.6
20260831104945 75 156 0.0 0.0 0.00 0.00 0.00 98 1016.7
20260831104441 75 333 0.0 0.0 0.00 0.00 0.00 99 1016.6
20260831103937 75 349 0.0 1.0 0.00 0.00 0.00 98 1016.5
20260831103432 75 319 0.0 1.0 0.00 0.00 0.00 98 1016.6
20260831102927 75 40 0.0 0.0 0.00 0.00 0.00 98 1016.6
20260831102427 75 22 0.0 0.0 0.00 0.00 0.00 99 1016.6
20260831101922 75 44 0.0 0.0 0.00 0.00 0.00 98 1016.4
20260831101417 75 224 0.0 0.0 0.00 0.00 0.00 98 1016.5
20260831100913 75 323 0.0 0.0 0.00 0.00 0.00 98 1016.3
20260831100409 75 286 0.0 1.0 0.00 0.00 0.00 98 1016.5
20260831095904 75 348 0.0 0.0 0.00 0.00 0.00 98 1016.2
20260831095403 75 351 0.0 0.0 0.00 0.00 0.00 98 1016.3
20260831094858 75 341 0.0 0.0 0.00 0.00 0.00 98 1016.0
20260831094354 75 345 0.0 1.0 0.00 0.00 0.00 98 1016.4
20260831093850 75 40 0.0 0.0 0.00 0.00 0.00 98 1016.2
20260831093344 75 139 0.0 0.0 0.00 0.00 0.00 98 1016.1
20260831092841 75 301 0.0 0.0 0.00 0.00 0.00 98 1016.2
20260831092337 75 290 0.0 1.0 0.00 0.00 0.00 98 1016.2
20260831091831 75 319 0.0 1.0 0.00 0.00 0.00 98 1016.4
20260831091327 75 351 0.0 0.0 0.00 0.00 0.00 98 1016.4
20260831090822 75 30 0.0 0.0 0.00 0.00 0.00 98 1016.1
20260831090318 75 301 0.0 1.0 0.00 0.00 0.00 98 1016.4
20260831085815 75 288 0.0 0.0 0.00 0.00 0.00 98 1016.5
20260831085309 76 303 0.0 0.0 0.00 0.00 0.00 98 1016.2
20260831084809 76 323 0.0 1.0 0.00 0.00 0.00 98 1016.2
20260831084306 76 305 0.0 0.0 0.00 0.00 0.00 98 1016.6
20260831083801 76 288 0.0 1.0 0.00 0.00 0.00 98 1016.3
20260831083257 76 325 0.0 0.0 0.00 0.00 0.00 98 1016.3
20260831082755 76 325 0.0 0.0 0.00 0.00 0.00 98 1016.3
20260831082251 76 294 0.0 1.0 0.00 0.00 0.00 98 1016.3
20260831081746 76 30 0.0 1.0 0.00 0.00 0.00 98 1016.2
20260831081242 76 325 0.0 1.0 0.02 0.00 0.00 98 1016.4
20260831080738 76 324 0.0 1.0 0.02 0.00 0.00 98 1016.6
20260831080237 76 330 0.0 1.0 0.00 0.00 0.00 98 1016.7
20260831075733 76 327 0.0 0.0 0.00 0.00 0.00 98 1016.4
20260831075229 76 0 0.0 0.0 0.00 0.00 0.00 98 1016.4
20260831074728 76 315 0.0 0.0 0.00 0.00 0.00 98 1016.5
20260831074222 76 315 0.0 0.0 0.00 0.00 0.00 98 1016.4
20260831073718 76 312 0.0 1.0 0.00 0.00 0.00 98 1016.6
20260831073217 76 328 0.0 0.0 0.00 0.00 0.00 98 1016.7
20260831072712 76 311 0.0 0.0 0.00 0.00 0.00 98 1016.6
20260831072209 76 301 0.0 0.0 0.00 0.00 0.00 97 1016.7
20260831071708 76 305 0.0 0.0 0.00 0.00 0.00 98 1016.7
20260831071203 76 328 0.0 0.0 0.00 0.00 0.00 98 1016.9
20260831070702 76 311 0.0 1.0 0.00 0.00 0.00 97 1017.0
20260831070157 76 16 0.0 0.0 0.00 0.00 0.00 97 1016.9
20260831065656 76 16 0.0 0.0 0.00 0.00 0.00 97 1016.9
20260831065155 76 338 0.0 1.0 0.00 0.00 0.00 97 1017.0
20260831064650 76 328 0.0 1.0 0.00 0.00 0.00 97 1017.1
20260831064145 76 328 0.0 0.0 0.00 0.00 0.00 97 1017.2
20260831063641 76 315 0.0 0.0 0.00 0.00 0.00 97 1016.8
20260831063131 76 315 0.0 1.0 0.00 0.00 0.00 97 1017.0
20260831062630 76 315 0.0 1.0 0.00 0.00 0.00 97 1017.0
20260831062130 76 0 0.0 0.0 0.00 0.00 0.00 97 1016.8
20260831061628 76 293 0.0 1.0 0.00 0.00 0.00 97 1017.1
20260831061125 76 352 0.0 0.0 0.00 0.00 0.00 97 1017.1
20260831060621 77 131 0.0 0.0 0.00 0.00 0.00 97 1017.3
20260831060120 77 341 0.0 1.0 0.00 0.00 0.00 97 1017.1
20260831055620 77 319 0.0 0.0 0.00 0.00 0.00 96 1017.4
20260831055115 77 25 0.0 0.0 0.00 0.00 0.00 97 1017.3
20260831054615 77 319 0.0 0.0 0.00 0.00 0.00 96 1017.3
20260831054115 77 341 0.0 0.0 0.00 0.00 0.00 96 1017.2
20260831053614 77 346 0.0 1.0 0.00 0.00 0.00 96 1017.2
20260831053114 77 347 0.0 1.0 0.00 0.00 0.00 96 1017.4
20260831052612 77 315 0.0 0.0 0.00 0.00 0.00 96 1017.3
20260831052107 77 328 0.0 0.0 0.00 0.00 0.00 96 1017.4
20260831051605 77 325 0.0 1.0 0.00 0.00 0.00 96 1017.4
20260831051104 77 331 0.0 1.0 0.00 0.00 0.00 96 1017.5
20260831050604 77 16 0.0 0.0 0.00 0.00 0.00 96 1017.5
20260831045602 77 319 0.0 0.0 0.00 0.00 0.00 95 1017.4
20260831045057 77 319 0.0 0.0 0.00 0.00 0.00 95 1017.5
20260831044553 77 317 0.0 1.0 0.00 0.00 0.00 95 1017.3
20260831044048 77 325 0.0 1.0 0.00 0.00 0.00 95 1017.5
20260831043543 77 325 0.0 0.0 0.00 0.00 0.00 95 1017.4
20260831043038 77 44 0.0 0.0 0.00 0.00 0.00 94 1017.3
20260831042538 78 319 0.0 1.0 0.00 0.00 0.00 94 1017.4
20260831042033 78 331 0.0 0.0 0.00 0.00 0.00 94 1017.4
20260831041528 78 331 0.0 0.0 0.00 0.00 0.00 94 1017.4
20260831041027 78 315 0.0 0.0 0.00 0.00 0.00 94 1017.6
20260831040522 78 315 0.0 0.0 0.00 0.00 0.00 94 1017.5
20260831040022 78 97 0.0 0.0 0.00 0.00 0.00 94 1017.6
20260831035519 78 44 0.0 0.0 0.00 0.02 0.02 94 1017.5
20260831035015 78 277 0.0 0.0 0.00 0.02 0.02 94 1017.6
20260831034509 78 277 0.0 0.0 0.00 0.02 0.02 94 1017.7
20260831034004 78 277 0.0 0.0 0.00 0.02 0.02 93 1017.6
20260831033500 78 308 0.0 0.0 0.00 0.02 0.02 93 1017.6
20260831032955 78 27 0.0 0.0 0.00 0.02 0.02 93 1017.6
20260831032455 78 27 0.0 0.0 0.00 0.02 0.02 93 1017.7
20260831031950 78 27 0.0 0.0 0.00 0.02 0.02 93 1017.6
20260831031450 78 300 0.0 0.0 0.00 0.02 0.02 92 1017.7
20260831030949 78 300 0.0 0.0 0.00 0.02 0.02 92 1017.7
20260831030449 79 297 0.0 1.0 0.00 0.02 0.02 92 1017.6
20260831025947 79 301 0.0 0.0 0.00 0.02 0.02 92 1017.5
20260831025446 79 319 0.0 0.0 0.00 0.02 0.02 92 1017.8
20260831024942 79 294 0.0 0.0 0.00 0.02 0.02 92 1017.8
20260831024442 79 311 0.0 1.0 0.00 0.02 0.02 91 1017.9
20260831023936 79 317 1.0 2.0 0.00 0.02 0.02 91 1017.8
20260831023435 80 295 1.0 1.0 0.00 0.02 0.02 91 1017.5
20260831022930 80 44 0.0 0.0 0.00 0.02 0.02 90 1017.7
20260831022429 80 315 0.0 0.0 0.00 0.02 0.02 90 1017.8
20260831021924 80 315 0.0 1.0 0.00 0.02 0.02 90 1017.7
20260831021423 80 337 0.0 1.0 0.00 0.02 0.02 90 1017.7
20260831020920 80 319 0.0 0.0 0.00 0.02 0.02 90 1017.7
20260831020419 80 142 0.0 0.0 0.00 0.02 0.02 90 1017.6
20260831015914 80 227 0.0 0.0 0.00 0.02 0.02 90 1017.5
20260831015410 80 114 0.0 0.0 0.00 0.02 0.02 89 1017.7
20260831014910 80 316 0.0 0.0 0.00 0.02 0.02 89 1017.6
20260831014405 81 135 0.0 1.0 0.00 0.02 0.02 88 1017.7
20260831013901 81 139 0.0 1.0 0.00 0.02 0.02 88 1017.7
20260831013356 81 77 0.0 1.0 0.00 0.02 0.02 88 1017.6
20260831012850 81 119 0.0 1.0 0.00 0.02 0.02 88 1017.6
20260831012346 81 139 0.0 2.0 0.00 0.02 0.02 88 1017.4
20260831011845 81 288 0.0 0.0 0.00 0.02 0.02 87 1017.6
20260831011340 81 21 0.0 0.0 0.00 0.02 0.02 87 1017.6
20260831010836 81 58 0.0 1.0 0.00 0.02 0.02 87 1017.4
20260831010336 81 203 0.0 1.0 0.00 0.02 0.02 87 1017.7
20260831005832 81 294 0.0 0.0 0.00 0.02 0.02 87 1017.7
20260831005327 81 350 1.0 1.0 0.00 0.02 0.02 87 1017.7
20260831004822 81 282 0.0 2.0 0.00 0.02 0.02 86 1017.8
20260831004318 81 128 2.0 2.0 0.00 0.02 0.02 86 1017.6
20260831003813 81 159 1.0 2.0 0.00 0.02 0.02 86 1017.3
20260831003310 81 152 2.0 2.0 0.00 0.02 0.02 86 1017.5
20260831002809 81 53 0.0 1.0 0.00 0.02 0.02 86 1017.8
20260831002308 81 139 0.0 0.0 0.00 0.02 0.02 86 1017.4
20260831001804 81 135 0.0 0.0 0.00 0.02 0.02 85 1017.4
20260831001259 81 67 1.0 1.0 0.00 0.02 0.02 85 1017.3
20260831000757 81 149 0.0 0.0 0.00 0.02 0.02 86 1017.3
20260831000256 81 282 0.0 0.0 0.00 0.02 0.02 85 1017.3
20260830235755 82 282 0.0 1.0 0.00 0.02 0.02 85 1017.1
20260830235250 82 67 0.0 3.0 0.00 0.02 0.02 85 1017.2
20260830234745 82 143 0.0 1.0 0.00 0.02 0.02 85 1017.2
20260830234241 82 205 3.0 3.0 0.00 0.02 0.02 84 1017.2
20260830233736 82 241 2.0 2.0 0.00 0.02 0.02 84 1017.1
20260830233232 82 137 0.0 1.0 0.00 0.02 0.02 84 1017.1
20260830232727 82 180 0.0 3.0 0.00 0.02 0.02 84 1017.2
20260830232223 82 117 0.0 2.0 0.00 0.02 0.02 84 1017.2
20260830231719 82 205 0.0 2.0 0.00 0.02 0.02 83 1017.2
20260830231219 82 75 1.0 3.0 0.00 0.02 0.02 83 1017.2
20260830230714 82 103 2.0 2.0 0.00 0.02 0.02 83 1017.2
20260830230209 82 142 1.0 2.0 0.00 0.02 0.02 83 1017.3
20260830225703 82 73 1.0 3.0 0.00 0.02 0.02 82 1017.3
20260830225158 82 126 0.0 3.0 0.00 0.02 0.02 82 1017.4
20260830224657 82 84 1.0 3.0 0.00 0.02 0.02 82 1017.1
20260830224153 82 61 0.0 4.0 0.00 0.02 0.02 83 1017.1
20260830223649 82 178 1.0 4.0 0.00 0.02 0.02 83 1017.1
20260830223150 82 157 2.0 3.0 0.00 0.02 0.02 84 1017.1
20260830222644 82 133 2.0 2.0 0.00 0.02 0.02 84 1016.8
20260830222140 82 121 2.0 3.0 0.00 0.02 0.02 85 1016.9
20260830221635 82 138 2.0 4.0 0.00 0.02 0.02 84 1017.2
20260830221132 82 247 0.0 2.0 0.00 0.02 0.02 84 1016.8
20260830220627 82 183 0.0 2.0 0.00 0.02 0.02 84 1016.8
20260830220126 82 78 2.0 3.0 0.00 0.02 0.02 85 1016.8
20260830215625 82 221 1.0 2.0 0.00 0.02 0.02 85 1016.9
20260830215119 82 327 0.0 2.0 0.00 0.02 0.02 86 1016.8
20260830214615 82 103 1.0 4.0 0.00 0.02 0.02 86 1016.7
20260830214110 82 138 1.0 4.0 0.00 0.02 0.02 85 1016.6
20260830213609 81 148 2.0 4.0 0.00 0.02 0.02 87 1016.5
20260830213104 81 173 2.0 5.0 0.00 0.02 0.02 86 1016.6
20260830212600 81 129 2.0 4.0 0.00 0.02 0.02 86 1016.6
20260830212055 81 138 0.0 3.0 0.02 0.02 0.02 86 1016.8
20260830211550 81 181 2.0 3.0 0.02 0.02 0.02 87 1016.6
20260830211049 80 120 2.0 5.0 0.00 0.01 0.01 87 1016.5
20260830210544 80 266 0.0 5.0 0.00 0.01 0.01 87 1016.4
20260830210043 80 114 3.0 4.0 0.00 0.01 0.01 87 1016.5
20260830205541 80 151 2.0 3.0 0.00 0.01 0.01 89 1016.6
20260830205037 80 160 4.0 6.0 0.00 0.01 0.01 87 1016.6
20260830204536 80 133 3.0 6.0 0.00 0.01 0.01 87 1016.7
20260830204036 80 142 3.0 8.0 0.00 0.01 0.01 87 1016.6
20260830203532 80 130 4.0 4.0 0.00 0.01 0.01 87 1016.9
20260830203032 80 117 4.0 6.0 0.02 0.01 0.01 85 1016.7
20260830202532 80 207 1.0 5.0 0.02 0.01 0.01 86 1017.2
20260830202028 80 146 1.0 3.0 0.00 0.01 0.01 85 1017.0
20260830201527 81 131 0.0 3.0 0.02 0.01 0.01 84 1016.9
20260830201023 80 106 1.0 4.0 0.02 0.01 0.01 84 1017.0
20260830200518 81 113 0.0 3.0 0.00 0.00 0.00 82 1016.7
20260830200017 80 107 2.0 2.0 0.00 0.00 0.00 82 1016.8
20260830195513 80 83 2.0 6.0 0.00 0.00 0.00 80 1017.0
20260830195010 80 121 3.0 4.0 0.02 0.00 0.00 77 1017.2
20260830194510 80 237 2.0 7.0 0.02 0.00 0.00 75 1017.0
20260830194011 81 216 1.0 2.0 0.00 0.00 0.00 76 1017.2
20260830193509 82 108 5.0 6.0 0.00 0.00 0.00 71 1017.2
20260830193005 82 133 2.0 5.0 0.00 0.00 0.00 71 1017.3